This is the latest recevied weather packets stored in our database for station/object KK7ISX. If no packets are shown the sender has not sent any weather packets the latest 10 day(s).
| Time | Temp. | Humidity | Pressure | Rain* | Wind** | Luminosity | Snow |
|---|---|---|---|---|---|---|---|
| 1777472227 | 10° C | 60% | 1020.5 hPa | 0 mm | - | 89 W/m² | - |
| 1777471922 | 10° C | 60% | 1020.5 hPa | 0 mm | - | 72 W/m² | - |
| 1777471619 | 10° C | 61% | 1020.4 hPa | 0 mm | - | 64 W/m² | - |
| 1777471311 | 10° C | 64% | 1020.5 hPa | 0 mm | - | 54 W/m² | - |
| 1777471007 | 10.56° C | 79% | 1020.7 hPa | 0 mm | - | 49 W/m² | - |
| 1777470703 | 10.56° C | 65% | 1020.7 hPa | 0 mm | - | 44 W/m² | - |
| 1777470393 | 11.11° C | 57% | 1020.5 hPa | 0 mm | - | 39 W/m² | - |
| 1777470091 | 11.67° C | 70% | 1020.4 hPa | 0 mm | - | 34 W/m² | - |
| 1777469787 | 10.56° C | 62% | 1020.4 hPa | 0 mm | - | 28 W/m² | - |
| 1777469476 | 10° C | 61% | 1020.4 hPa | 0 mm | - | 23 W/m² | - |
| 1777469171 | 10° C | 67% | 1020.3 hPa | 0 mm | - | 19 W/m² | - |
| 1777468865 | 8.89° C | 64% | 1020.2 hPa | 0 mm | - | 15 W/m² | - |
| 1777468563 | 8.89° C | 61% | 1020.2 hPa | 0 mm | - | 12 W/m² | - |
| 1777468259 | 8.89° C | 61% | 1020.1 hPa | 0 mm | - | 10 W/m² | - |
| 1777467955 | 8.89° C | 61% | 1020.2 hPa | 0 mm | - | 8 W/m² | - |
| 1777467651 | 8.89° C | 61% | 1020.1 hPa | 0 mm | - | 7 W/m² | - |
| 1777467347 | 8.89° C | 60% | 1020 hPa | 0 mm | - | 5 W/m² | - |
| 1777467043 | 8.33° C | 62% | 1019.9 hPa | 0 mm | - | 4 W/m² | - |
| 1777466741 | 8.89° C | 62% | 1019.9 hPa | 0 mm | - | 2 W/m² | - |
| 1777466438 | 8.89° C | 62% | 1019.8 hPa | 0 mm | - | 2 W/m² | - |
| 1777466134 | 8.89° C | 61% | 1019.9 hPa | 0 mm | - | 1 W/m² | - |
| 1777465831 | 8.33° C | 61% | 1019.7 hPa | 0 mm | - | 0 W/m² | - |
| 1777465526 | 8.33° C | 62% | 1019.7 hPa | 0 mm | - | 0 W/m² | - |
| 1777465221 | 8.89° C | 62% | 1019.8 hPa | 0 mm | - | 0 W/m² | - |
| 1777464916 | 8.89° C | 62% | 1019.7 hPa | 0 mm | - | 0 W/m² | - |
* Rain latest hour (hover to see other rain measurements)
** Current wind speed in m/s (hover to see current wind gust speed)